CW3008 Weather Reports


Display with metric or nautical units.
time (UTC)temp
F
wind
direction
speed
MPH
gust
MPH
rain 1hr
in
rain 24hr
in
rain mn
in
humidity
%
barometer
mb
20260507110052 48 131 0.0 0.0 0.01 0.09 0.08 89 1006.4
20260507104600 48 131 0.0 0.0 0.02 0.09 0.08 89 1006.4
20260507103048 48 131 0.0 0.0 0.04 0.09 0.08 89 1006.2
20260507101553 48 131 0.0 0.0 0.05 0.08 0.07 88 1006.1
20260507100055 48 131 0.0 0.0 0.04 0.07 0.06 87 1005.9
20260507094543 49 131 0.0 0.0 0.04 0.07 0.06 86 1005.8
20260507093040 49 131 0.0 0.0 0.03 0.05 0.04 85 1005.8
20260507091542 50 131 0.0 0.0 0.01 0.03 0.02 85 1005.9
20260507090036 50 131 0.0 0.0 0.01 0.03 0.02 85 1005.8
20260507084545 50 131 0.0 0.0 0.02 0.03 0.02 85 1005.4
20260507083029 51 131 0.0 0.0 0.01 0.02 0.01 84 1005.0
20260507081526 51 131 0.0 0.0 0.01 0.02 0.01 84 1005.4
20260507080024 52 131 0.0 0.0 0.01 0.02 0.01 82 1005.3
20260507074519 52 131 0.0 0.0 0.00 0.01 0.00 83 1005.0
20260507073023 52 340 0.0 0.0 0.00 0.01 0.00 82 1004.9
20260507071518 52 327 0.0 0.0 0.00 0.01 0.00 83 1004.8
20260507070020 53 332 0.0 0.0 0.00 0.01 0.00 86 1004.9
20260507064547 53 350 0.0 0.0 0.00 0.01 0.00 88 1004.8
20260507063050 53 352 0.0 0.0 0.00 0.01 0.00 88 1004.4
20260507061513 53 352 0.0 0.0 0.00 0.01 0.00 89 1004.9
20260507060010 53 352 0.0 0.0 0.00 0.01 0.00 90 1004.8
20260507054506 54 131 0.0 0.0 0.00 0.01 0.00 91 1004.9
20260507053005 54 131 0.0 0.0 0.00 0.01 0.00 91 1004.5
20260507051607 56 131 0.0 0.0 0.00 0.01 0.00 92 1004.8
20260507050110 57 333 0.0 0.0 0.00 0.01 0.00 93 1004.6
20260507044557 57 320 0.0 0.0 0.00 0.01 0.00 93 1004.4
20260507043053 57 131 0.0 0.0 0.00 0.01 0.00 93 1004.5
20260507041552 57 131 0.0 0.0 0.00 0.01 0.00 93 1004.8
20260507040149 57 257 0.0 0.0 0.00 0.01 0.00 93 1004.7
20260507034547 56 131 0.0 0.0 0.00 0.01 0.01 93 1004.7
20260507033048 56 131 0.0 0.0 0.00 0.01 0.01 93 1004.3
20260507031545 56 131 0.0 0.0 0.00 0.01 0.01 93 1004.0
20260507030046 56 131 0.0 0.0 0.00 0.01 0.01 93 1004.1
20260507024545 56 131 0.0 0.0 0.00 0.01 0.01 92 1004.3
20260507023039 56 131 0.0 0.0 0.00 0.01 0.01 92 1004.3
20260507021550 56 131 0.0 0.0 0.00 0.01 0.01 92 1004.2
20260507020037 56 131 0.0 0.0 0.00 0.01 0.01 92 1004.4
20260507014534 56 131 0.0 0.0 0.00 0.01 0.01 92 1004.6
20260507013036 56 131 0.0 0.0 0.00 0.01 0.01 92 1004.7
20260507011537 56 131 0.0 0.0 0.00 0.01 0.01 92 1004.7
20260507010041 56 131 0.0 0.0 0.00 0.01 0.01 92 1004.7
20260507004530 56 131 0.0 0.0 0.00 0.01 0.01 92 1004.8
20260507003029 56 131 0.0 0.0 0.01 0.01 0.01 92 1004.6
20260507001533 56 131 0.0 0.0 0.01 0.01 0.01 92 1004.6
20260507000033 56 131 0.0 0.0 0.01 0.01 0.01 92 1004.7
20260506234524 56 131 0.0 0.0 0.01 0.01 0.01 91 1004.5
20260506233023 57 131 0.0 0.0 0.00 0.00 0.00 91 1004.7
20260506231525 57 131 0.0 0.0 0.00 0.00 0.00 91 1004.7
20260506230022 57 131 0.0 0.0 0.00 0.00 0.00 91 1004.8
20260506224518 57 131 0.0 0.0 0.00 0.00 0.00 90 1004.8
20260506223018 58 221 0.0 0.0 0.00 0.00 0.00 90 1005.1
20260506221514 58 150 0.0 0.0 0.00 0.00 0.00 90 1005.4
20260506220022 58 147 0.0 0.0 0.00 0.00 0.00 89 1005.4
20260506214544 58 232 0.0 0.0 0.00 0.00 0.00 89 1005.5
20260506213042 59 131 0.0 0.0 0.00 0.00 0.00 88 1005.6
20260506211539 59 131 0.0 0.0 0.00 0.00 0.00 86 1005.8
20260506210041 61 268 0.0 0.0 0.00 0.00 0.00 82 1005.9
20260506204550 61 260 0.0 0.0 0.00 0.00 0.00 81 1006.0
20260506203038 61 251 0.0 0.0 0.00 0.00 0.00 81 1005.8
20260506201539 61 218 0.0 0.0 0.00 0.00 0.00 80 1005.6
20260506200035 62 83 0.0 0.0 0.00 0.00 0.00 79 1006.0
20260506194534 62 214 0.0 0.0 0.00 0.00 0.00 76 1006.1
20260506193032 64 274 0.0 0.0 0.00 0.00 0.00 72 1006.0
20260506191531 64 242 0.0 0.0 0.00 0.00 0.00 71 1005.9
20260506190027 64 188 0.0 0.0 0.00 0.00 0.00 72 1006.1
20260506184526 64 302 0.0 0.0 0.00 0.00 0.00 72 1006.0
20260506183024 64 226 0.0 0.0 0.00 0.00 0.00 70 1006.1
20260506181527 65 241 0.0 0.0 0.00 0.00 0.00 69 1006.3
20260506180017 66 223 0.0 0.0 0.00 0.00 0.00 67 1006.7
20260506174517 67 120 0.0 0.0 0.00 0.00 0.00 66 1006.5
20260506173015 66 263 0.0 0.0 0.00 0.00 0.00 68 1006.6
20260506171522 64 182 0.0 0.0 0.00 0.00 0.00 71 1006.8
20260506170011 64 270 0.0 0.0 0.00 0.00 0.00 71 1006.9
20260506164510 65 112 0.0 0.0 0.00 0.00 0.00 70 1007.0
20260506163007 64 221 0.0 0.0 0.00 0.00 0.00 71 1007.3
20260506161508 64 152 0.0 0.0 0.00 0.00 0.00 70 1007.5
20260506160002 65 202 0.0 0.0 0.00 0.00 0.00 68 1007.8
20260506154502 67 126 0.0 0.0 0.00 0.00 0.00 64 1008.0
20260506153058 69 225 0.0 0.0 0.00 0.00 0.00 65 1008.2
20260506151607 67 292 0.0 0.0 0.00 0.00 0.00 67 1008.4
20260506150052 67 249 0.0 0.0 0.00 0.00 0.00 68 1008.3
20260506144548 65 152 0.0 0.0 0.00 0.00 0.00 71 1008.2
20260506143052 65 150 0.0 0.0 0.00 0.00 0.00 71 1007.9
20260506141546 63 171 0.0 0.0 0.00 0.00 0.00 74 1008.1
20260506140049 63 95 0.0 0.0 0.00 0.00 0.00 74 1008.2
20260506134544 64 267 0.0 0.0 0.00 0.00 0.00 72 1008.7
20260506133045 65 252 0.0 0.0 0.00 0.00 0.00 73 1008.6
20260506131540 64 284 0.0 0.0 0.00 0.00 0.00 75 1008.5
20260506130008 62 294 0.0 0.0 0.00 0.00 0.00 79 1008.8
20260506124504 60 210 0.0 0.0 0.00 0.00 0.00 80 1008.9
20260506123001 60 263 0.0 0.0 0.00 0.00 0.00 82 1008.5
20260506121604 59 264 0.0 0.0 0.00 0.00 0.00 83 1008.7
20260506114559 59 131 0.0 0.0 0.00 0.00 0.00 84 1009.2
20260506113105 58 265 0.0 0.0 0.00 0.00 0.00 85 1008.9
20260506111556 57 88 0.0 0.0 0.00 0.00 0.00 85 1009.1